Terminal Aerodrome Forecast
Issued by NWS La Crosse, WI

Home | Current Version | Previous Version | Text Only | Print | Product List | Glossary On
Versions: 1 2 3 4 5 6 7 8 9 10 11 12 13 14 15 16 17 18 19 20 21 22 23 24 25 26 27 28 29 30 31 32
000
FTUS43 KARX 172330
TAFLSE
TAF
KLSE 172330Z 1800/1824 VRB03KT P6SM BKN080
     FM180200 VRB03KT P6SM SKC
     FM180700 VRB03KT 6SM BR SCT030
     FM180900 09004KT 4SM BR SCT004 BKN030
     FM181400 11005KT P6SM BKN030
     FM181800 13006KT P6SM SCT035=

USA.gov is the U.S. government's official web portal to all federal, state and local government web resources and services.